Simultaneous Nadir Overpasses (SNOs) Predictions

Prediction of SNOs between GOES-16 and TERRA Satellite Orbit:

Table of predicted SNOs for the next 14.0 days since TLE Epoch: 11/13/2020
Index Date Time (GOES-16) GOES-16 Lat,Lon TERRA Lat,Lon Distance(km) Time Diff (sec)
1 11/14/2020 03:26:55 0.04, -75.16 0.17, -74.54 70.17 80
2 11/16/2020 03:14:43 0.04, -75.11 0.78, -71.58 401.37 80
3 11/16/2020 15:35:59 -0.03, -75.13 0.28, -76.75 183.12 80
4 11/18/2020 15:26:27 -0.03, -75.09 -0.33, -73.79 148.71 80
5 11/19/2020 03:47:50 0.02, -75.05 -0.84, -78.97 445.71 80
6 11/20/2020 15:14:15 -0.02, -75.05 -0.95, -70.83 481.15 80
7 11/21/2020 03:35:38 0.02, -75.02 -0.22, -76.01 113.06 80
8 11/23/2020 03:20:46 0.01, -74.99 0.40, -73.05 220.56 80
9 11/23/2020 15:42:02 -0.01, -75.02 0.66, -78.21 363.42 80
10 11/25/2020 15:29:50 -0.01, -75.00 0.04, -75.26 28.86 80
